Location: Allen Generating Plant
(35.0740°N, 90.1490°W)
Time: 08:20:58
(UTC+00:00)

Explorer 11/Cluster Stage 4 - Pass Details

Date: 14 November 2024
Orbit: 464 x 1202 km, 28.8° (Epoch: 06 December)

Event Time Altitude Azimuth Distance (km) Brightness Sun altitude
Exits shadow 11:10:29 21° 231° (SW) 1,390 7.5 -17.4°
Maximum altitude 11:12:50 35° 179° (S) 925 7.0 -16.9°
Drops below altitude 10° 11:16:27 10° 113° (ESE) 1,731 9.6 -16.2°
Sets 11:18:38 0° 103° (ESE) 2,554 11.1 -15.7°
